« Back
NWS Peachtree City, Ga » Text Product » GA Regional Weather Roundup


Printer-friendly Version
Current Version              Previous Versions:   1  2  3  4  5  6  7  8  9  

Regional Weather Roundup

751
ASUS42 KFFC 280903
RWRGA
WEATHER ROUNDUP FOR GEORGIA
NATIONAL WEATHER SERVICE PEACHTREE CITY GA
400 AM EST FRI NOV 28 2014

NOTE: "FAIR" INDICATES FEW OR NO CLOUDS BELOW 12,000 FEET WITH NO
SIGNIFICANT WEATHER AND/OR OBSTRUCTIONS TO VISIBILITY.

* = USE WITH CAUTION. THE STATIONS MARKED WITH AN ASTERISK MAY NOT
REPORT WEATHER SUCH AS PRECIPITATION, FOG, OR THUNDER AND ARE NOT
QUALITY CONTROLLED BY NWS.

THE REMARK "TC" DENOTES TEMPERATURE READING IN DEGREES CELSIUS.

GAZ001>058-281000-
NORTH GEORGIA

CITY           SKY/WX    TMP DP  RH WIND       PRES   REMARKS
ATLANTA        CLEAR     30  21  69 NW8       30.36S WCI  22
ATHENS         CLEAR     31  22  69 VRB5      30.35R WCI  26
CHAMBLEE       CLEAR     29  21  72 NW6       30.37R WCI  23
PEACHTREE CITY CLEAR     30  23  75 NW6       30.39S WCI  24
ROME           CLEAR     25  21  85 CALM      30.41S
WEST ATLANTA   CLEAR     30  21  69 N5        30.38S WCI  25
GAINESVILLE    CLEAR     30  19  63 NW8       30.35R WCI  22
CARTERSVILLE   CLEAR     29  20  69 VRB5      30.41S WCI  24


CITY           SKY/WX    TMP DP  RH WIND       PRES   REMARKS
DALTON*        CLEAR     30  23  74 NW6       30.41S WCI  24
MARIETTA       CLEAR     29  22  73 NW7       30.36F WCI  22
$$

GAZ059>098-102>109-281000-
CENTRAL GEORGIA

CITY           SKY/WX    TMP DP  RH WIND       PRES   REMARKS
AUGUSTA-BUSH   CLEAR     29  26  89 CALM      30.36R
AUGUSTA-DANIEL CLEAR     35  27  72 N5        30.34S WCI  31
COLUMBUS       CLEAR     33  27  78 N3        30.39F
MACON          CLEAR     29  27  92 W3        30.38R
ROBINS AFB     CLEAR     30  26  83 N8        30.37R WCI  23


CITY           SKY/WX    TMP DP  RH WIND       PRES   REMARKS
LAGRANGE*      CLEAR     30  28  92 CALM      30.39S
SYLVANIA*      CLEAR     35  32  90 NW3       30.35S
MILLEDGEVILLE* CLEAR     32  30  93 CALM      30.37S
$$

GAZ099>101-110>166-281000-
SOUTH GEORGIA

CITY           SKY/WX    TMP DP  RH WIND       PRES   REMARKS
SAVANNAH       CLEAR     39  29  67 NW10      30.34S WCI  32
VALDOSTA       CLEAR     32  30  92 CALM      30.35F
ALMA           CLEAR     34  29  82 N3        30.35S
ST SIMONS      CLEAR     39  29  67 N9        30.32F WCI  33
FT STEWART     CLEAR     37  29  73 NW5       30.33S WCI  33
ALBANY         CLEAR     32  29  88 CALM      30.40S
HUNTER AFB     CLEAR     38  30  73 NW9       30.31S WCI  31
MOODY AFB      CLEAR     34  30  84 N5        30.35F WCI  30
BRUNSWICK      CLEAR     39  30  70 NW6       30.34S WCI  35


CITY           SKY/WX    TMP DP  RH WIND       PRES   REMARKS
BAINBRIDGE*    CLEAR     37  34  87 N5        30.39S WCI  34
MOULTRIE*      CLEAR     37  32  81 N3        30.36F
VIDALIA*       CLEAR     36  32  87 NW3       30.35S
WAYCROSS*      CLEAR     36  32  86 N3        30.35S
DOUGLAS*       CLEAR     37  30  75 N6        30.36F WCI  33
$$



USA.gov is the U.S. government's official web portal to all federal, state and local government web resources and services.